Home   Weather   Tromsø   Past weeks
Flag for Norway

Past Weather in Tromsø, Norway — Yesterday and Last 2 Weeks

Now
58 °F

Passing clouds.


Feels Like: 58 °F
Forecast: 68 / 51 °F
Wind: 2 mph from Southwest

Location: Tromso / Langnes

Current Time: Jul 20, 2019 at 9:32:48 am

Latest Report: Jul 20, 2019 at 8:00 am


Visibility: 25 mi

Pressure: 29.88 "Hg

Humidity: 73%

Dew Point: 50 °F

Location of TromsøLocation

Past Weather in Tromsø — Graph

°F

Tromsø Temperature Yesterday

Maximum temperature yesterday: 72 °F (at 5:00 pm)
Minimum temperature yesterday: 47 °F (at 3:00 am)
Average temperature yesterday: 61 °F

High & Low Weather Summary for the Past Weeks

 TemperatureHumidityPressure
High72 °F (Jul 19, 5:00 pm)93% (Jul 6, 7:00 pm)30.09 "Hg (Jul 6, 7:00 pm)
Low44 °F (Jul 15, 4:00 am)33% (Jul 8, 3:00 pm)29.65 "Hg (Jul 5, 8:00 am)
Average53 °F71%29.95 "Hg
* Reported Jul 5 8:00 am — Jul 20 8:00 am, Tromsø. Weather by CustomWeather, © 2019

Note: Actual official high and low records may vary slightly from our data, if they occured in-between our weather recording intervals... More about our weather records

Advertising

Tromsø Weather History for the Previous 24 Hours

Scroll right to see more
 ConditionsComfort  
Time TempWeatherWind HumidityBarometerVisibility
8:00 am
Sat, Jul 20
58 °FPassing clouds.2 mph73%29.88 "Hg25 mi
7:00 am57 °FSunny.2 mph73%29.88 "Hg25 mi
6:00 am56 °FSunny.2 mph77%29.88 "Hg28 mi
5:00 am54 °FScattered clouds.No wind80%29.87 "Hg25 mi
4:00 am53 °FScattered clouds.No wind78%29.87 "Hg31 mi
3:00 am53 °FPassing clouds.1 mph76%29.88 "Hg31 mi
2:00 am54 °FSunny.1 mph74%29.87 "Hg31 mi
1:00 am56 °FPassing clouds.1 mph68%29.87 "Hg31 mi
12:00 am60 °FSunny.1 mph57%29.86 "Hg31 mi
11:00 pm
Fri, Jul 19
62 °FPartly sunny.2 mph53%29.85 "Hg25 mi
10:00 pm62 °FSunny.6 mph53%29.85 "Hg31 mi
9:00 pm64 °FSunny.6 mph50%29.85 "Hg31 mi
8:00 pm67 °FPassing clouds.6 mph47%29.85 "Hg22 mi
7:00 pm69 °FSunny.6 mph42%29.84 "Hg25 mi
6:00 pm71 °FSunny.5 mph40%29.85 "Hg22 mi
5:00 pm72 °FSunny.5 mph38%29.85 "Hg25 mi
4:00 pm71 °FSunny.3 mph40%29.86 "Hg22 mi
3:00 pm70 °FSunny.5 mph40%29.86 "Hg22 mi
2:00 pm70 °FSunny.3 mph46%29.88 "Hg25 mi
1:00 pm69 °FSunny.2 mph42%29.88 "Hg22 mi
12:00 pm67 °FSunny.2 mph45%29.88 "Hg25 mi
11:00 am66 °FSunny.2 mph49%29.89 "Hg25 mi
10:00 am63 °FMild.2 mph53%29.90 "Hg25 mi
9:00 am59 °FSunny.1 mph70%29.91 "Hg22 mi
Weather by CustomWeather, © 2019

See weather overview